Regional Weather Roundup
Issued by NWS San Angelo, TX

Home | Current Version | Previous Version | Text Only | Print | Product List | Glossary On
Versions: 1 2 3 4 5 6 7 8 9 10 11 12 13 14 15 16 17 18 19 20 21 22 23 24 25 26 27 28 29 30 31 32 33 34 35 36 37 38 39 40 41 42 43 44 45 46 47 48 49 50
000
ASUS44 KSJT 260302
RWRSJT
WEST CENTRAL TEXAS REGIONAL WEATHER ROUNDUP
NATIONAL WEATHER SERVICE SAN ANGELO TX
1000 PM CDT MON JUL 25 2016

NOTE: "FAIR" INDICATES FEW OR NO CLOUDS BELOW 12,000 FEET WITH NO
SIGNIFICANT WEATHER AND/OR OBSTRUCTIONS TO VISIBILITY.

TXZ049-054-064>066-071>073-076>078-098-099-113-114-127-128-139-140-
154-155-168>170-260400
...LOCATIONS ACROSS WEST CENTRAL TEXAS...

CITY           SKY/WX    TMP DP  RH WIND       PRES   REMARKS
SAN ANGELO     CLEAR     90  61  37 E17G24    29.94R
ABILENE        CLEAR     88  66  48 SE16      29.97R
DYESS AFB      NOT AVBL
JUNCTION       CLOUDY    76  71  85 E12       29.99R
SWEETWATER     CLEAR     88  61  40 E7        30.01R
BROWNWOOD      NOT AVBL
COLEMAN        CLEAR     84  65  52 SE9       29.99R
SONORA         CLEAR     90  59  35 E3        29.99R
OZONA          FAIR      90  54  29 E8        29.98R
BRADY          NOT AVBL
$$

TEXAS PANHANDLE/OKLAHOMA PANHANDLE

CITY           SKY/WX    TMP DP  RH WIND       PRES   REMARKS
AMARILLO       CLOUDY    76  60  57 S3        30.12R
BORGER         CLOUDY    86  66  51 SE3       30.08R
CANADIAN       PTCLDY    83  69  63 SE7       30.04R
DALHART        CLOUDY    74  62  66 W13       30.18S
DUMAS          PTCLDY    79  62  56 S6        30.15R
GUYMON         NOT AVBL
HEREFORD       PTCLDY    74  66  77 E6        30.14R
PAMPA          MOCLDY    78  67  69 E6        30.11R
PERRYTON       PTCLDY    79  68  69 NE6       30.09R
$$

SOUTHERN PANHANDLE/SOUTH PLAINS/ROLLING PLAINS

CITY           SKY/WX    TMP DP  RH WIND       PRES   REMARKS
LUBBOCK        MOCLDY    80  61  52 E6        30.06R
SNYDER           N/A     88  62  41 N3        29.99R
CHILDRESS      MOCLDY    85  64  49 NE5       29.99R
SEMINOLE       CLEAR     87  56  35 E12G20    30.05R
$$

PERMIAN BASIN

CITY           SKY/WX    TMP DP  RH WIND       PRES   REMARKS
MIDLAND        PTCLDY    93  56  28 E9        29.99R
ODESSA         PTCLDY    92  56  29 E9        30.01R
WINK           CLOUDY    92  53  26 E12       29.96R
$$

FAR WEST/SOUTHWEST MOUNTAINS/TRANS PECOS

CITY           SKY/WX    TMP DP  RH WIND       PRES   REMARKS
ALPINE         CLEAR     85  51  31 SE10G16   30.13S
DRYDEN           N/A     92  60  34 SE9       29.92R
EL PASO        PTCLDY    94  45  18 E9        29.99R
FORT STOCKTON  PTCLDY    91  56  30 SE10      29.98R
GUADALUPE PASS CLEAR     83  50  31 E18       30.17R
MARFA          CLEAR     81  51  35 E9        30.12R
PECOS          MOCLDY    92  56  30 E16       29.93R
$$

DALLAS/FORT WORTH METROPLEX

CITY           SKY/WX    TMP DP  RH WIND       PRES   REMARKS
DFW AIRPORT    CLOUDY    82  72  71 SE6       29.93S
FTW MEACHAM    CLOUDY    86  71  60 SE8       29.94R
DAL-EXECUTIVE  CLOUDY    83  71  67 S6        29.93F
GRAND PRAIRIE  MOCLDY    83  71  66 S7        29.95S
ADDISON        MOCLDY    81  72  74 SE8       29.95R
MESQUITE       CLOUDY    77  74  92 SE3       29.94S
LANCASTER      PTCLDY    82  72  72 CALM      29.95R
$$

NORTH CENTRAL TEXAS

CITY           SKY/WX    TMP DP  RH WIND       PRES   REMARKS
SHRMAN/DENISON NOT AVBL
GAINESVILLE    NOT AVBL
BRIDGEPORT     PTCLDY    82  72  70 SE5       29.96S
DENTON         PTCLDY    81  70  69 SE7       29.95R
WAXAHACHIE     MOCLDY    79  73  82 S6        29.96S
GRANBURY       PTCLDY    84  70  63 SE7       29.97R
$$

WESTERN NORTH TEXAS

CITY           SKY/WX    TMP DP  RH WIND       PRES   REMARKS
WICHITA FALLS  CLEAR     85  72  65 SE12      29.93R
VERNON         CLEAR     89  62  40 SE7       29.95R
BRECKENRIDGE   NOT AVBL
COMANCHE       CLOUDY    79  71  76 SE9       29.98R
$$

CENTRAL AND SOUTH CENTRAL TEXAS

CITY           SKY/WX    TMP DP  RH WIND       PRES   REMARKS
AUSTIN/BERGSTM MOCLDY    79  76  90 NE5       29.96F
WACO           MOCLDY    77  70  79 S7        29.95R
HILLSBORO      CLOUDY    75  73  91 CALM      29.96R
TEMPLE         CLOUDY    77  73  87 S7        29.96R
KILLEEN-GRAY   NOT AVBL
FORT HOOD      NOT AVBL
GEORGETOWN     CLEAR     75  72  88 S3        29.96F
LAGO VISTA     FAIR      76  73  92 S3        29.99F
SAN MARCOS     CLOUDY    77  75  94 SE3       29.99F
NEW BRAUNFELS  TSTM      76  75  97 E8        29.96S
RANDOLPH AFB   TSTM      73  73 100 E16       29.99R FOG
SAN ANTONIO    TSTM      74  70  87 E15G24    29.98R
STINSON        TSTM      73  71  93 E8G24     29.97R VSB 1/2
PLEASANTON     NOT AVBL
LA GRANGE      NOT AVBL
GIDDINGS       MOCLDY    76  73  87 CALM      29.99R
$$

EAST TEXAS

CITY           SKY/WX    TMP DP  RH WIND       PRES   REMARKS
PARIS          CLOUDY    81  66  61 CALM      29.96R
CLARKSVILLE    NOT AVBL
TYLER          CLOUDY    80  73  79 S7        29.96R
LONGVIEW       PTCLDY    79  74  84 SW8       29.94S
PALESTINE      DRIZZLE   77  76  97 SE3       29.96F
NACOGDOCHES    CLOUDY   N/A N/A N/A CALM      29.93F
$$

TEXAS HILL COUNTRY AND EDWARDS PLATEAU

CITY           SKY/WX    TMP DP  RH WIND       PRES   REMARKS
LLANO          CLOUDY    75  75 100 CALM      30.02R
HORSESHOE BAY  LGT RAIN  74  72  92 SE7       29.98F
KERRVILLE      RAIN      74  71  89 E10       30.00R
FREDERICKSBRG  CLOUDY    73  70  92 E8        30.01S
ROCKSPRINGS    NOT AVBL
HONDO          MOCLDY    87  71  58 E28G41    29.93R
UVALDE         PTCLDY    88  65  45 E6        29.89R
DEL RIO        CLEAR     94  61  33 E7        29.85R
$$

SOUTHEAST TEXAS

CITY           SKY/WX    TMP DP  RH WIND       PRES   REMARKS
COLLEGE STN    CLOUDY    76  74  93 CALM      29.94S
CALDWELL       CLOUDY    75  75 100 CALM      29.98S
CROCKETT       NOT AVBL
BRENHAM        LGT RAIN  77  74  91 CALM      29.94R
HUNTSVILLE     CLOUDY    75  74  96 CALM      29.95R
CONROE         CLOUDY    76  74  93 CALM      29.93F
HOUSTON BUSH   CLOUDY    81  73  76 NW3       29.91F
HOUSTON HOBBY  CLOUDY    80  77  90 CALM      29.91F
PERLAND        PTCLDY    82  78  88 CALM      29.92F
WHARTON        DRIZZLE   74  73  96 NE6       29.93S
$$

THE UPPER TEXAS COAST

CITY           SKY/WX    TMP DP  RH WIND       PRES   REMARKS
ORANGE         CLOUDY    76  74  93 CALM      29.94S
PORT ARTHUR    LGT RAIN  76  75  97 CALM      29.91F FOG
GALVESTON      PTCLDY    79  77  94 SW3       29.92F
ANGLETON       MOCLDY    81  77  88 SE3       29.91F
BAY CITY       CLOUDY    80  75  85 NE3       29.92S
$$

TEXAS COASTAL BEND, RIO GRANDE PLAINS DEEP SOUTH TEXAS

CITY           SKY/WX    TMP DP  RH WIND       PRES   REMARKS
VICTORIA       CLOUDY    79  75  87 E5        29.92R
BEEVILLE       FAIR      83  78  83 SE7       29.90R
ROCKPORT       PTCLDY    85  76  74 SE12      29.89R
PORT ARANSAS   MOCLDY    85  79  82 S9        29.89R
PORT LAVACA    CLOUDY    83  77  82 CALM      29.91S
CORPUS CHRISTI MOCLDY    84  78  82 SE12      29.89R
KINGSVILLE NAS MOCLDY    84  80  88 SE10      29.88R
COTULLA        MOCLDY    93  72  50 SE23G31   29.85R
LAREDO         PTCLDY    93  72  50 E17G24    29.84R
BROWNSVILLE    MOCLDY    84  78  82 SE9       29.89R
PORT ISABEL    CLOUDY    85  78  80 SE12      29.88R
HEBBRONVILLE   PTCLDY    88  73  62 SE13G22   29.89R
MCALLEN        PTCLDY    87  75  67 SE15      29.87R
WESLACO        CLOUDY    82   8   6 SE10G17   29.87R
FALFURRIAS     PTCLDY    86  75  70 SE10      29.87R
EDINBURG       PTCLDY    87  72  61 SE9       29.87R
$$



USA.gov is the U.S. government's official web portal to all federal, state and local government web resources and services.